Date,TemperatureHighF,TemperatureAvgF,TemperatureLowF,DewpointHighF,DewpointAvgF,DewpointLowF,HumidityHigh,HumidityAvg,HumidityLow,PressureMaxIn,PressureMinIn,WindSpeedMaxMPH,WindSpeedAvgMPH,GustSpeedMaxMPH,PrecipitationSumIn
2013-1-1,42,19,8,17,15,5,93,83,28,0.00,40.00,6,3,10,0.00
2013-1-2,23,18,15,15,13,12,92,83,63,0.00,40.00,6,3,8,0.00
2013-1-3,33,17,10,13,10,7,91,75,36,0.00,40.00,7,4,9,0.00
2013-1-4,42,19,8,16,10,4,86,72,32,0.00,40.00,5,3,11,0.00
2013-1-5,26,20,12,22,17,9,94,88,78,0.00,40.00,4,2,6,0.00
2013-1-6,46,26,15,28,20,12,94,80,35,0.00,40.00,8,4,11,0.00
2013-1-7,55,43,36,35,31,25,82,65,43,0.00,40.00,17,11,22,0.00
2013-1-8,61,45,37,37,19,-65,83,59,6,0.00,40.00,26,11,35,0.00
2013-1-9,48,43,33,33,-27,-80,71,26,46,0.00,40.00,17,11,25,0.00
2013-1-10,44,42,37,-73,-75,-78,0,0,100,0.00,40.00,11,8,17,0.00
2013-1-11,43,41,38,-73,-75,-76,0,0,100,0.00,40.00,7,5,11,0.00
2013-1-12,39,37,34,-76,-77,-79,0,0,100,0.00,40.00,4,3,5,0.00
2013-1-13,41,38,36,-75,-76,-78,0,0,100,0.00,40.00,3,3,6,0.00
2013-1-14,39,31,16,26,18,9,88,60,35,0.00,40.00,7,4,11,0.00
2013-1-15,42,29,19,27,22,16,91,75,52,0.00,40.00,5,3,7,0.00
2013-1-16,45,30,21,28,22,16,85,72,39,0.00,40.00,7,4,8,0.00
2013-1-17,39,27,18,26,8,-76,93,72,23,0.00,40.00,5,3,7,0.00
2013-1-18,45,32,23,27,22,18,91,67,43,0.00,40.00,6,3,7,0.00
2013-1-19,47,33,22,31,21,16,79,62,39,0.00,40.00,6,4,7,0.00
2013-1-20,38,27,19,24,20,13,94,77,52,0.00,40.00,6,4,8,0.00
2013-1-21,28,20,15,26,18,13,94,92,89,0.00,40.00,6,3,8,0.00
2013-1-22,23,21,20,22,20,18,94,93,92,0.00,40.00,4,2,5,0.00
2013-1-23,30,25,22,29,24,21,96,94,90,0.00,40.00,5,2,9,0.00
2013-1-24,43,33,22,37,30,21,96,90,75,0.00,40.00,5,3,7,0.00
2013-1-25,49,44,39,43,40,35,99,85,75,0.00,40.00,13,7,18,0.01
2013-1-26,44,38,31,39,28,24,99,67,47,0.00,40.00,15,7,27,0.01
2013-1-27,41,34,27,27,25,23,89,69,48,0.00,40.00,12,6,16,0.00
2013-1-28,40,36,33,31,28,26,80,73,63,0.00,40.00,10,6,13,0.00
2013-1-29,46,40,36,34,32,30,81,71,63,0.00,40.00,6,4,17,0.00
2013-1-30,49,44,38,35,33,29,74,65,56,0.00,40.00,12,8,17,0.00
2013-1-31,49,41,32,36,34,30,93,76,54,0.00,40.00,5,3,7,0.00
2013-2-1,48,36,28,37,32,27,96,84,63,0.00,40.00,6,4,11,0.00
2013-2-2,44,33,25,34,29,23,94,85,64,0.00,40.00,5,4,6,0.00
2013-2-3,49,38,27,38,31,25,93,79,61,0.00,40.00,5,3,6,0.00
2013-2-4,49,40,31,34,31,28,88,72,51,0.00,40.00,5,3,8,0.00
2013-2-5,50,41,35,33,29,25,83,64,40,0.00,40.00,18,9,28,0.00
2013-2-6,47,40,33,30,27,24,79,61,40,0.00,40.00,14,7,20,0.00
2013-2-7,43,36,29,29,26,22,83,70,45,0.00,40.00,8,3,11,0.00
2013-2-8,42,30,20,25,22,18,91,73,42,0.00,40.00,14,5,16,0.00
2013-2-9,46,32,19,30,25,17,90,76,53,0.00,40.00,13,6,19,0.00
2013-2-10,46,34,24,28,24,22,93,70,41,0.00,40.00,6,4,10,0.00
2013-2-11,50,33,20,34,26,17,89,75,52,0.00,40.00,17,6,22,0.00
2013-2-12,52,39,29,33,29,26,91,70,39,0.00,40.00,12,6,18,0.00
2013-2-13,49,40,32,34,32,28,88,71,50,0.00,40.00,11,5,14,0.00
2013-2-14,54,37,26,39,31,25,94,80,51,0.00,40.00,10,4,13,0.00
2013-2-15,54,39,28,38,33,27,97,82,53,0.00,40.00,7,4,9,0.00
2013-2-16,52,38,29,35,30,24,95,72,41,0.00,40.00,12,6,17,0.00
2013-2-17,44,33,27,26,23,21,83,67,43,0.00,40.00,10,4,14,0.00
2013-2-18,39,32,23,27,24,21,89,72,54,0.00,40.00,5,3,8,0.00
2013-2-19,44,30,22,26,22,19,88,72,47,0.00,40.00,9,4,14,0.00
2013-2-20,44,32,20,29,22,18,90,71,40,0.00,40.00,7,5,12,0.00
2013-2-21,41,35,29,27,25,23,84,66,47,0.00,40.00,14,8,23,0.00
2013-2-22,45,40,34,33,28,25,77,61,51,0.00,40.00,28,12,38,0.00
2013-2-23,42,33,24,26,22,19,90,66,38,0.00,40.00,17,8,25,0.00
2013-2-24,48,33,22,24,21,18,87,63,35,0.00,40.00,8,5,13,0.00
2013-2-25,45,37,26,33,25,12,85,63,27,0.00,40.00,19,9,25,0.00
2013-2-26,49,34,23,23,18,7,87,57,18,0.00,40.00,8,4,13,0.00
2013-2-27,50,39,31,33,24,17,70,55,36,0.00,40.00,11,5,17,0.00
2013-2-28,57,48,41,40,35,30,71,60,52,0.00,40.00,14,9,19,0.00
2013-3-1,63,55,40,37,34,33,79,47,33,0.00,40.00,10,6,14,0.00
2013-3-2,52,44,37,38,35,31,85,70,52,0.00,40.00,14,4,22,0.00
2013-3-3,46,37,28,34,22,9,74,56,21,0.00,40.00,15,10,20,0.00
2013-3-4,49,35,19,20,18,14,82,51,28,0.00,40.00,7,4,12,0.00
2013-3-5,41,33,25,34,23,16,94,68,48,0.00,40.00,8,4,12,0.00
2013-3-6,41,35,32,37,31,26,100,85,61,0.00,40.00,16,7,23,0.00
2013-3-7,49,37,25,30,16,-73,83,60,32,0.00,40.00,12,5,17,0.00
2013-3-8,49,36,25,29,21,-72,92,67,40,0.00,40.00,8,4,12,0.00
2013-3-9,57,38,22,26,20,18,86,54,21,0.00,40.00,10,6,15,0.00
2013-3-10,61,37,26,45,17,-71,79,61,5,0.00,40.00,10,4,13,0.00
2013-3-11,54,45,37,43,33,19,91,68,25,0.00,40.00,6,3,8,0.00
2013-3-12,63,48,36,40,35,25,93,66,26,0.00,40.00,14,5,20,0.00
2013-3-13,69,52,41,38,34,29,74,53,27,0.00,40.00,9,3,14,0.00
2013-3-14,68,52,39,36,30,18,81,50,17,0.00,40.00,22,9,31,0.00
2013-3-15,58,49,39,40,36,32,88,64,39,0.00,40.00,8,4,12,0.00
2013-3-16,53,44,35,33,30,28,90,61,37,0.00,40.00,22,10,29,0.00
2013-3-17,42,34,24,30,22,17,86,61,40,0.00,40.00,10,5,18,0.00
2013-3-18,50,36,22,25,22,19,86,61,31,0.00,40.00,11,5,17,0.00
2013-3-19,47,36,26,34,25,20,86,65,38,0.00,40.00,5,3,9,0.00
2013-3-20,51,42,35,40,34,26,97,74,56,0.00,40.00,24,12,35,0.01
2013-3-21,43,35,28,27,22,19,73,59,40,0.00,40.00,15,9,21,0.00
2013-3-22,40,32,23,24,20,15,85,62,35,0.00,40.00,17,8,25,0.00
2013-3-23,43,33,25,25,20,13,85,61,28,0.00,40.00,5,3,10,0.00
2013-3-24,47,35,24,24,21,17,76,59,38,0.00,40.00,9,4,13,0.00
2013-3-25,52,41,30,29,26,23,78,56,38,0.00,40.00,9,5,13,0.00
2013-3-26,51,44,38,38,35,28,93,71,55,0.00,40.00,6,3,11,0.00
2013-3-27,57,45,32,43,38,31,96,76,50,0.00,40.00,8,4,12,0.00
2013-3-28,59,48,40,46,42,38,98,82,46,0.00,40.00,8,4,14,0.00
2013-3-29,62,52,44,46,43,40,98,75,46,0.00,40.00,5,3,11,0.00
2013-3-30,69,51,36,44,40,35,96,69,35,0.00,40.00,8,4,12,0.00
2013-3-31,68,52,36,40,36,33,91,58,31,0.00,40.00,13,6,20,0.00
2013-4-1,65,52,38,45,41,35,93,68,41,0.00,40.00,19,8,24,0.00
2013-4-2,65,50,36,41,38,34,92,69,34,0.00,40.00,15,6,19,0.00
2013-4-3,67,50,35,40,35,30,94,61,25,0.00,40.00,6,4,12,0.00
2013-4-4,65,52,48,50,42,37,82,68,42,0.00,40.00,16,7,27,0.00
2013-4-5,56,48,42,41,38,36,87,69,46,0.00,40.00,17,10,29,0.00
2013-4-6,55,48,43,39,36,33,85,64,43,0.00,40.00,21,11,35,0.00
2013-4-7,48,44,35,39,32,24,85,62,39,0.00,40.00,27,14,36,0.00
2013-4-8,51,39,26,31,28,23,86,66,41,0.00,40.00,19,10,24,0.00
2013-4-9,58,42,25,34,29,23,92,63,28,0.00,40.00,8,4,12,0.00
2013-4-10,61,51,42,42,36,26,71,56,34,0.00,40.00,24,11,32,0.00
2013-4-11,52,40,27,30,28,24,90,63,42,0.00,40.00,17,8,26,0.00
2013-4-12,60,42,27,35,28,22,87,61,23,0.00,40.00,18,7,25,0.00
2013-4-13,48,43,34,33,23,15,62,45,27,0.00,40.00,22,13,28,0.00
2013-4-14,46,36,28,32,24,18,83,64,32,0.00,40.00,14,6,19,0.00
2013-4-15,43,35,28,34,30,25,94,82,64,0.00,40.00,16,6,21,0.00
2013-4-16,47,37,29,33,27,20,97,70,34,0.00,40.00,10,5,23,0.00
2013-4-17,53,38,22,29,23,17,88,60,27,0.00,40.00,16,6,22,0.00
2013-4-18,60,47,34,41,34,27,78,61,43,0.00,40.00,13,5,17,0.00
2013-4-19,60,51,42,41,38,34,76,60,40,0.00,40.00,22,11,29,0.00
2013-4-20,58,47,36,35,34,32,85,61,38,0.00,40.00,18,8,24,0.00
2013-4-21,59,46,33,39,34,29,86,66,44,0.00,40.00,16,7,21,0.00
2013-4-22,54,45,37,36,27,17,83,54,24,0.00,40.00,9,6,17,0.00
2013-4-23,62,42,22,20,15,8,71,39,12,0.00,40.00,12,6,18,0.00
2013-4-24,68,47,27,35,21,14,59,37,16,0.00,40.00,6,4,16,0.00
2013-4-25,72,53,35,36,30,23,64,43,25,0.00,40.00,14,7,27,0.00
2013-4-26,77,58,38,44,34,25,79,45,16,0.00,40.00,11,5,15,0.00
2013-4-27,76,62,43,35,30,24,62,34,15,0.00,40.00,19,10,30,0.00
2013-4-28,65,50,40,38,32,26,75,51,27,0.00,40.00,16,5,25,0.00
2013-4-29,55,53,51,39,34,26,59,47,35,0.00,40.00,21,14,28,0.00
2013-4-30,48,43,36,26,24,22,64,48,36,0.00,40.00,17,13,23,0.00
2013-5-1,62,43,24,28,23,18,82,52,18,0.00,40.00,6,4,13,0.00
2013-5-2,73,53,34,34,27,22,64,40,14,0.00,40.00,7,5,12,0.00
2013-5-3,70,56,39,36,32,27,64,41,23,0.00,40.00,10,5,17,0.00
2013-5-4,70,57,39,36,32,28,63,41,23,0.00,40.00,18,9,29,0.00
2013-5-5,74,60,43,37,34,31,64,40,23,0.00,40.00,13,7,19,0.00
2013-5-6,80,66,43,45,37,33,77,38,18,0.00,40.00,13,6,22,0.00
2013-5-7,79,63,46,48,43,40,79,51,25,0.00,40.00,16,7,22,0.00
2013-5-8,82,63,44,47,43,36,87,54,19,0.00,40.00,10,5,15,0.00
2013-5-9,85,66,48,49,44,37,84,50,18,0.00,40.00,9,4,13,0.00
2013-5-10,87,66,51,53,40,-100,78,49,17,0.00,40.00,9,5,17,0.00
2013-5-11,86,70,53,55,51,47,79,54,28,0.00,40.00,6,3,11,0.00
2013-5-12,82,69,55,53,48,44,76,49,27,0.00,40.00,16,7,25,0.00
2013-5-13,66,58,47,50,42,33,85,57,32,0.00,40.00,24,10,33,0.00
2013-5-14,65,52,38,39,35,30,85,55,29,0.00,40.00,6,4,14,0.00
2013-5-15,60,51,39,46,38,30,73,62,42,0.00,40.00,9,5,14,0.00
2013-5-16,64,51,40,49,30,-100,91,74,40,0.00,40.00,11,4,16,0.01
2013-5-17,58,50,45,46,42,38,94,75,49,0.00,40.00,9,4,13,0.01
2013-5-18,58,48,37,45,40,35,93,73,54,0.00,40.00,11,5,15,0.00
2013-5-19,60,48,39,41,38,36,92,72,43,0.00,40.00,16,7,21,0.00
2013-5-20,74,55,34,47,38,33,94,59,25,0.00,40.00,6,4,10,0.00
2013-5-21,58,50,41,46,35,28,81,59,34,0.00,40.00,18,9,25,0.00
2013-5-22,47,42,35,33,28,26,70,57,43,0.00,40.00,18,11,25,0.00
2013-5-23,58,47,35,39,31,24,77,56,27,0.00,40.00,14,6,19,0.00
2013-5-24,59,49,41,39,34,29,87,60,33,0.00,40.00,15,7,22,0.00
2013-5-25,64,50,33,49,36,31,92,63,32,0.00,40.00,7,4,15,0.00
2013-5-26,61,54,49,49,45,39,98,75,47,0.00,40.00,13,4,18,0.01
2013-5-27,63,52,42,48,43,38,88,73,50,0.00,40.00,18,8,34,0.01
2013-5-28,64,56,46,43,39,34,88,56,32,0.00,40.00,18,8,24,0.00
2013-5-29,62,54,47,46,40,35,94,64,37,0.00,40.00,21,10,31,0.01
2013-5-30,61,50,35,41,36,32,89,61,39,0.00,40.00,14,6,18,0.00
2013-5-31,69,53,34,41,37,32,93,59,27,0.00,40.00,6,4,11,0.00
2013-6-1,75,59,41,47,41,34,83,56,26,0.00,40.00,11,5,15,0.00
2013-6-2,70,59,48,47,42,35,89,58,27,0.00,40.00,19,8,26,0.00
2013-6-3,76,59,39,42,38,32,92,52,23,0.00,40.00,12,5,18,0.00
2013-6-4,80,62,40,44,38,33,77,44,18,0.00,40.00,9,5,13,0.00
2013-6-5,85,67,48,50,43,38,69,44,22,0.00,40.00,10,4,15,0.00
2013-6-6,86,69,52,50,45,42,74,46,21,0.00,40.00,17,6,22,0.00
2013-6-7,83,68,52,51,47,44,79,51,29,0.00,40.00,19,7,27,0.00
2013-6-8,85,67,46,48,42,29,81,46,14,0.00,40.00,15,6,22,0.00
2013-6-9,80,66,55,46,39,28,68,41,14,0.00,40.00,15,7,22,0.00
2013-6-10,77,59,42,41,36,29,76,46,16,0.00,40.00,15,6,21,0.00
2013-6-11,64,53,42,40,37,33,85,56,31,0.00,40.00,17,8,25,0.00
2013-6-12,63,52,41,39,37,35,87,60,37,0.00,40.00,18,7,24,0.00
2013-6-13,59,49,37,43,38,34,88,69,46,0.00,40.00,19,6,25,0.00
2013-6-14,72,56,38,41,36,30,89,54,21,0.00,40.00,8,5,14,0.00
2013-6-15,81,62,41,50,39,30,79,48,15,0.00,40.00,13,6,18,0.00
2013-6-16,81,65,53,53,46,41,74,52,24,0.00,40.00,15,6,22,0.00
2013-6-17,76,62,48,56,47,42,83,59,29,0.00,40.00,13,5,21,0.00
2013-6-18,63,56,51,49,47,43,84,72,48,0.00,40.00,8,5,12,0.01
2013-6-19,60,52,47,45,41,37,90,67,42,0.00,40.00,15,6,22,0.00
2013-6-20,64,49,39,41,37,34,87,68,39,0.00,40.00,12,5,21,0.00
2013-6-22,76,67,48,47,42,40,79,43,27,0.00,40.00,6,5,15,0.00
2013-6-23,67,62,56,55,51,46,95,69,50,0.00,40.00,9,3,13,0.01
2013-6-24,62,56,52,55,51,47,99,83,57,0.00,40.00,5,3,11,0.01
2013-6-25,66,58,54,54,52,49,91,79,63,0.00,40.00,9,4,19,0.01
2013-6-26,70,61,54,56,54,52,96,80,58,0.00,40.00,6,3,11,0.01
2013-6-27,83,67,51,58,54,50,96,66,35,0.00,40.00,7,4,14,0.00
2013-6-28,91,73,57,61,57,52,92,62,26,0.00,40.00,9,4,13,0.00
2013-6-29,88,76,62,62,58,55,84,55,33,0.00,40.00,10,6,16,0.00
2013-6-30,91,70,58,56,53,51,79,56,30,0.00,40.00,8,4,13,0.00
2013-7-1,98,83,70,65,58,52,66,46,21,0.00,40.00,12,5,19,0.00
2013-7-2,97,80,65,64,61,53,86,58,23,0.00,40.00,10,4,18,0.00
2013-7-3,88,78,66,56,48,28,61,39,16,0.00,40.00,15,8,20,0.00
2013-7-4,80,69,55,43,40,31,65,37,18,0.00,40.00,19,10,26,0.00
2013-7-5,76,62,49,46,40,33,82,48,24,0.00,40.00,17,10,23,0.00
2013-7-6,83,61,44,44,41,33,81,52,16,0.00,40.00,10,5,14,0.00
2013-7-7,85,69,53,51,46,36,75,46,18,0.00,40.00,16,6,22,0.00
2013-7-8,85,66,48,49,44,37,80,50,18,0.00,40.00,13,5,18,0.00
2013-7-9,93,73,52,53,44,40,63,40,18,0.00,40.00,12,5,16,0.00
2013-7-10,89,72,59,52,49,42,69,47,19,0.00,40.00,10,4,19,0.00
2013-7-11,80,68,55,50,40,28,76,40,18,0.00,40.00,14,7,20,0.00
2013-7-12,75,59,45,42,37,28,70,46,17,0.00,40.00,14,6,21,0.00
2013-7-13,80,64,44,41,35,27,78,40,14,0.00,40.00,9,5,15,0.00
2013-7-14,89,68,47,44,35,31,55,32,13,0.00,40.00,12,5,17,0.00
2013-7-15,87,70,51,39,37,32,57,32,15,0.00,40.00,10,5,16,0.00
2013-7-16,85,72,59,42,40,38,48,33,20,0.00,40.00,10,7,17,0.00
2013-7-17,89,71,55,49,42,31,63,40,13,0.00,40.00,13,5,17,0.00
2013-7-18,92,73,52,47,41,34,70,38,13,0.00,40.00,9,5,12,0.00
2013-7-19,94,75,54,38,31,23,42,22,7,0.00,40.00,12,6,16,0.00
2013-7-20,93,74,52,40,26,17,38,20,6,0.00,40.00,15,7,21,0.00
2013-7-21,93,74,50,39,30,23,39,21,9,0.00,40.00,16,8,23,0.00
2013-7-22,93,73,52,42,38,33,58,34,12,0.00,40.00,13,7,17,0.00
2013-7-23,91,76,51,44,34,28,40,23,11,0.00,40.00,13,6,18,0.00
2013-7-24,93,77,57,47,33,27,43,22,9,0.00,40.00,11,5,18,0.00
2013-7-25,95,80,61,42,34,29,46,23,9,0.00,40.00,12,5,16,0.00
2013-7-26,93,74,60,36,29,15,29,21,6,0.00,40.00,18,8,24,0.00
2013-7-27,84,70,60,40,34,20,47,30,9,0.00,40.00,17,10,25,0.00
2013-7-28,81,62,46,41,35,32,59,40,18,0.00,40.00,20,7,25,0.00
2013-7-29,80,61,46,47,41,35,72,50,21,0.00,40.00,14,5,19,0.00
2013-7-30,85,67,51,48,41,31,74,45,14,0.00,40.00,8,4,14,0.00
2013-7-31,81,70,59,49,45,36,64,43,20,0.00,40.00,13,4,24,0.00
2013-8-1,74,65,57,53,49,45,77,57,41,0.00,40.00,20,10,27,0.00
2013-8-2,77,60,45,50,46,42,88,63,27,0.00,40.00,12,4,17,0.00
2013-8-3,83,68,47,48,41,31,83,45,15,0.00,40.00,7,4,13,0.00
2013-8-4,89,71,53,49,45,39,67,43,18,0.00,40.00,9,4,15,0.00
2013-8-5,89,73,55,54,49,42,75,47,20,0.00,40.00,11,5,16,0.00
2013-8-6,92,73,54,51,45,32,70,42,12,0.00,40.00,13,5,17,0.00
2013-8-7,87,76,67,49,42,31,45,32,13,0.00,40.00,15,8,21,0.00
2013-8-8,87,74,64,50,47,42,59,39,20,0.00,40.00,12,6,17,0.00
2013-8-9,86,72,62,56,50,44,78,48,23,0.00,40.00,9,4,16,0.00
2013-8-10,75,62,51,55,52,49,94,73,46,0.00,40.00,12,4,23,0.01
2013-8-11,79,65,52,53,50,45,90,61,31,0.00,40.00,10,4,15,0.01
2013-8-12,84,68,51,53,50,46,90,58,26,0.00,40.00,13,5,17,0.00
2013-8-13,87,66,51,51,47,41,87,56,21,0.00,40.00,6,3,11,0.00
2013-8-14,88,69,55,50,45,42,60,45,22,0.00,40.00,14,5,20,0.00
2013-8-15,88,64,53,56,46,44,73,56,22,0.00,40.00,6,4,13,0.00
2013-8-16,82,71,62,59,57,55,78,61,41,0.00,40.00,6,4,12,0.00
2013-8-17,81,66,56,57,55,52,88,69,37,0.00,40.00,14,4,20,0.00
2013-8-18,86,69,51,54,50,47,88,57,26,0.00,40.00,13,6,18,0.00
2013-8-19,86,67,54,52,48,45,73,54,30,0.00,40.00,13,5,19,0.00
2013-8-20,85,66,51,51,41,24,86,51,10,0.00,40.00,6,3,11,0.00
2013-8-21,84,62,50,44,37,30,59,41,17,0.00,40.00,9,4,13,0.00
2013-8-22,81,69,59,56,44,35,72,43,24,0.00,40.00,13,5,19,0.00
2013-8-23,81,68,57,54,51,46,86,59,29,0.00,40.00,10,6,17,0.00
2013-8-24,80,56,52,57,40,-100,91,66,29,0.00,40.00,8,4,15,0.01
2013-8-25,70,60,55,57,55,54,95,86,57,0.00,40.00,9,4,13,0.04
2013-8-26,75,64,51,53,50,47,92,62,40,0.00,40.00,11,5,15,0.02
2013-8-27,60,56,51,50,50,48,91,80,71,0.00,40.00,4,3,5,0.00
2013-8-28,84,77,68,56,52,47,62,43,27,0.00,40.00,13,6,19,0.00
2013-8-29,81,70,60,57,54,51,86,59,34,0.00,40.00,10,5,17,0.00
2013-8-30,81,68,57,54,52,47,84,59,30,0.00,40.00,8,5,14,0.00
2013-8-31,86,64,52,55,41,-100,88,55,28,0.00,40.00,7,4,12,0.00
2013-9-1,91,74,57,53,48,36,72,44,14,0.00,40.00,15,6,22,0.00
2013-9-2,84,69,57,54,50,45,76,54,25,0.00,40.00,18,8,26,0.00
2013-9-3,81,66,52,53,51,47,87,60,31,0.00,40.00,15,7,19,0.00
2013-9-4,83,65,53,53,50,41,88,64,24,0.00,40.00,15,6,21,0.00
2013-9-5,74,58,51,52,50,44,90,74,40,0.00,40.00,16,4,23,0.00
2013-9-6,67,60,53,52,48,44,91,66,49,0.00,40.00,13,9,19,0.00
2013-9-7,76,57,45,52,40,-100,94,65,38,0.00,40.00,9,4,15,0.00
2013-9-8,76,64,50,51,49,47,89,61,35,0.00,40.00,8,4,15,0.00
2013-9-9,84,66,50,53,46,44,81,52,25,0.00,40.00,6,4,11,0.00
2013-9-10,87,67,52,52,46,43,72,51,21,0.00,40.00,11,6,16,0.00
2013-9-11,89,70,55,51,48,45,68,47,23,0.00,40.00,9,5,15,0.00
2013-9-12,90,75,56,52,48,45,64,41,22,0.00,40.00,10,6,13,0.00
2013-9-13,84,71,58,50,47,44,66,44,26,0.00,40.00,12,4,16,0.00
2013-9-14,89,66,54,52,35,-100,68,40,21,0.00,40.00,6,4,11,0.00
2013-9-15,86,69,60,53,50,48,67,54,28,0.00,40.00,16,5,20,0.00
2013-9-16,70,60,51,48,46,44,81,62,39,0.00,40.00,13,6,19,0.00
2013-9-17,63,55,50,48,44,39,83,68,48,0.00,40.00,17,7,23,0.00
2013-9-18,50,48,46,41,40,39,80,74,66,0.00,40.00,5,3,9,0.00
2013-9-19,73,58,40,40,38,35,85,51,26,0.00,40.00,7,4,10,0.00
2013-9-20,75,58,43,48,39,36,74,53,24,0.00,40.00,18,6,25,0.00
2013-9-21,65,56,48,50,45,41,88,68,43,0.00,40.00,12,5,17,0.00
2013-9-22,62,55,45,48,44,38,87,66,44,0.00,40.00,15,10,25,0.00
2013-9-23,63,57,52,43,41,37,63,55,46,0.00,40.00,14,10,21,0.00
2013-9-24,53,50,46,47,44,41,92,82,65,0.00,40.00,7,3,17,0.01
2013-9-25,52,47,42,42,40,38,95,77,63,0.00,40.00,13,6,20,0.01
2013-9-26,55,47,39,41,38,36,88,70,54,0.00,40.00,14,5,20,0.00
2013-9-27,58,48,36,45,38,34,90,70,42,0.00,40.00,13,8,17,0.00
2013-9-28,65,56,52,49,47,46,90,72,53,0.00,40.00,16,11,24,0.00
2013-9-29,54,50,46,47,42,39,84,74,61,0.00,40.00,25,14,34,0.02
2013-9-30,55,50,43,49,38,34,85,64,53,0.00,40.00,18,14,27,0.01
2013-10-1,49,43,37,37,34,33,85,73,63,0.00,40.00,11,6,14,0.00
2013-10-2,50,40,32,38,34,30,93,78,54,0.00,40.00,9,4,11,0.00
2013-10-3,54,43,36,39,36,33,93,75,48,0.00,40.00,7,3,11,0.00
2013-10-4,58,42,32,36,33,30,92,72,41,0.00,40.00,6,3,7,0.00
2013-10-5,65,47,32,40,34,29,91,65,30,0.00,40.00,6,4,10,0.00
2013-10-6,70,52,33,42,36,31,90,59,33,0.00,40.00,6,4,8,0.00
2013-10-7,57,50,44,39,36,33,76,58,44,0.00,40.00,13,7,21,0.00
2013-10-8,52,42,37,39,35,32,85,76,55,0.00,40.00,13,6,19,0.00
2013-10-9,48,40,33,38,35,32,94,82,67,0.00,40.00,8,3,12,0.00
2013-10-10,57,44,36,38,36,33,90,74,45,0.00,40.00,15,6,22,0.00
2013-10-11,53,42,32,39,36,30,95,77,54,0.00,40.00,5,3,7,0.00
2013-10-12,49,40,34,40,36,32,93,85,68,0.00,40.00,5,4,7,0.00
2013-10-13,54,46,39,41,39,34,91,76,51,0.00,40.00,5,3,11,0.00
2013-10-14,55,41,28,38,31,27,93,71,44,0.00,40.00,5,4,12,0.00
2013-10-15,56,41,28,34,30,25,86,65,41,0.00,40.00,6,4,11,0.00
2013-10-16,60,44,32,37,33,27,84,66,36,0.00,40.00,8,4,12,0.00
2013-10-17,61,46,31,38,34,29,89,64,39,0.00,40.00,5,4,8,0.00
2013-10-18,59,43,29,38,33,27,92,71,43,0.00,40.00,6,4,7,0.00
2013-10-19,67,45,34,39,24,-100,89,54,34,0.00,40.00,6,3,7,0.00
2013-10-20,68,47,35,37,33,29,80,60,30,0.00,40.00,5,4,8,0.00
2013-10-21,68,53,35,40,36,31,84,56,35,0.00,40.00,6,4,8,0.00
2013-10-22,67,52,38,41,38,34,86,60,36,0.00,40.00,7,4,8,0.00
2013-10-23,65,51,36,43,39,33,89,65,42,0.00,40.00,6,4,10,0.00
2013-10-24,64,46,34,42,38,32,94,76,43,0.00,40.00,6,4,7,0.00
2013-10-25,65,52,38,40,38,35,90,64,38,0.00,40.00,6,4,6,0.00
2013-10-26,59,43,35,42,28,-100,89,67,44,0.00,40.00,6,4,11,0.00
2013-10-27,53,45,35,41,38,34,94,79,57,0.00,40.00,14,8,20,0.00
2013-10-28,42,40,37,35,29,24,84,66,49,0.00,40.00,15,9,22,0.01
2013-10-29,46,35,25,25,22,21,82,62,36,0.00,40.00,5,3,6,0.00
2013-10-30,55,39,25,29,26,22,86,63,36,0.00,40.00,4,2,6,0.00
2013-10-31,56,49,42,46,41,35,86,75,65,0.00,40.00,7,4,11,0.00
2013-11-1,56,42,32,41,37,31,98,85,58,0.00,40.00,6,4,7,0.00
2013-11-2,50,39,33,40,21,-100,91,65,56,0.00,40.00,17,11,27,0.00
2013-11-3,41,36,30,31,30,27,89,78,61,0.00,40.00,7,5,10,0.00
2013-11-4,44,39,35,35,33,31,87,78,67,0.00,40.00,6,3,9,0.00
2013-11-5,51,46,41,42,38,33,81,75,70,0.00,40.00,14,7,19,0.00
2013-11-6,52,45,41,45,41,38,97,87,76,0.00,40.00,6,4,7,0.00
2013-11-7,45,44,42,44,40,31,99,90,63,0.00,40.00,9,4,14,0.00
2013-11-8,48,43,40,37,34,31,84,71,54,0.00,40.00,9,4,15,0.00
2013-11-9,41,35,30,35,32,28,97,90,73,0.00,40.00,4,3,6,0.00
2013-11-10,44,37,34,39,35,33,96,92,82,0.00,40.00,4,2,5,0.00
2013-11-11,42,40,39,40,39,38,98,93,86,0.00,40.00,4,2,5,0.00
2013-11-12,54,47,40,45,41,38,96,82,69,0.00,40.00,4,2,6,0.00
2013-11-13,50,42,31,41,37,30,98,86,68,0.00,40.00,5,4,8,0.00
2013-11-14,35,35,35,30,30,30,80,80,80,0.00,40.00,2,2,6,0.00
2013-11-16,43,43,43,30,30,30,59,59,59,0.00,40.00,9,9,18,0.00
2013-11-17,42,42,42,30,30,30,61,61,61,0.00,40.00,10,10,16,0.00
2013-11-18,43,43,43,32,32,32,64,64,64,0.00,40.00,0,0,2,0.00
2013-11-19,51,51,51,39,39,39,62,62,62,0.00,40.00,14,14,20,0.00
2013-11-20,33,33,33,23,23,23,66,66,66,0.00,40.00,8,8,15,0.00
2013-11-21,23,23,23,8,8,8,51,51,51,0.00,40.00,2,2,4,0.00
2013-11-23,21,21,21,13,13,13,70,70,70,0.00,40.00,4,4,6,0.00
2013-11-24,25,25,25,17,17,17,72,72,72,0.00,40.00,2,2,4,0.00
2013-12-3,26,26,26,21,21,21,81,81,81,0.00,40.00,10,10,17,0.00
2013-12-4,15,15,15,8,8,8,75,75,75,0.00,40.00,3,3,5,0.00
2013-12-5,10,10,10,3,3,3,70,70,70,0.00,40.00,4,4,6,0.00
2013-12-13,44,36,27,33,29,25,91,77,63,0.00,40.00,7,5,11,0.00
2013-12-14,40,32,25,33,26,-100,92,80,68,0.00,40.00,7,4,10,0.00
2013-12-15,53,39,32,36,31,27,93,74,48,0.00,40.00,5,3,9,0.00
2013-12-23,54,46,36,40,36,31,80,69,54,0.00,40.00,19,10,27,0.00
2013-12-24,42,33,26,32,28,23,92,81,64,0.00,40.00,7,4,10,0.00
2013-12-25,39,32,26,30,26,23,90,81,66,0.00,40.00,5,3,7,0.00
2013-12-26,46,34,25,31,27,23,92,76,52,0.00,40.00,6,3,8,0.00
2013-12-27,40,33,25,31,26,22,88,77,65,0.00,40.00,7,4,9,0.00
2013-12-28,42,31,24,31,24,-100,89,79,60,0.00,40.00,7,4,8,0.00
2013-12-29,40,30,23,28,24,20,88,77,58,0.00,40.00,5,3,7,0.00
2013-12-30,43,37,31,30,28,25,83,69,53,0.00,40.00,8,4,11,0.00
2013-12-31,51,42,35,34,30,24,86,61,42,0.00,40.00,11,5,15,0.00
2014-1-1,44,33,27,33,29,24,91,83,64,0.00,40.00,5,4,7,0.00
2014-1-2,54,38,26,34,29,25,94,73,37,0.00,40.00,23,6,32,0.00